Weather in Zagoryanskiy

Russia / Moscow Oblast     55°55′01″N   37°55′42″E
temp.,
°C
wind,
m/s
gust,
m/s
humid.,
%
clouds,
%
prec.,
mm/h
press.,
hPa
HPBL,
m
24 june, thu
thu2400:00+23s11640 0.0 102111
03:00+21ssw11730 0.0 102111
06:00+24wsw12724 0.0 102066
09:00+30ssw124848 0.0 1020541
12:00+33ssw23355 0.0 10192121
15:00+34ssw443029 0.0 10182480
18:00+32s353857 0.0 1017762
21:00+26ssw38679 0.0 1017140
25 june, fri
fri2500:00+23w2273100 0.1 101829
03:00+21w1181100 0.1 101711
06:00+23ssw247788 0.0 1017123
09:00+29ssw23501 0.0 1016651
12:00+33ssw23386 0.0 10162003
15:00+34s333244 0.0 10153088
18:00+30s474778 0.0 1013532
21:00+25ssw397429 0.6 1014301
26 june, sat
sat2600:00+21ne3694100 1.2 1014151
03:00+20sse2395100 1.2 101471
06:00+22sw26875 0.0 1013192
09:00+27w355868 0.0 1014797
12:00+31wsw234580 0.0 10131334
15:00+33wsw343410 0.0 10122633
18:00+30w134979 0.0 1011411
21:00+26s246328 0.0 101185
27 june, sun
sun2700:00+22sse018533 1.8 101213
03:00+20nw229548 3.4 101241
06:00+22sse11866 0.0 101273
09:00+27w23625 0.0 1013608
12:00+32wsw124314 0.0 10121586
15:00+33sw233582 0.0 10122894
18:00+27nnw125769 0.1 1011293
21:00+21e2387100 2.6 101250
28 june, mon
mon2800:00+20se229021 1.4 101224
03:00+20e119464 1.9 101211
06:00+23ene00875 0.0 101153
09:00+27w236416 0.0 1011648
12:00+29w345732 3.3 10121404
15:00+27wnw5859100 4.1 1012654
18:00+25wnw346149 0.0 1011601
21:00+21wsw228765 0.9 101123